Powrót do katalogu

SPEKTR R

AktywnyNaukaHEO
NORAD 37755·PAYLOAD·🇷🇺 Russia

Wystrzelony Jul 18, 2011 z Baikonur Cosmodrome

Loading…

Następne Przeloty (najbliższe 24 godziny)

TLE

NieaktualneSource: Space-Track

Epoka: Oct 1, 2025, 20:46 UTC

1 37755U 11037A   25274.86529625 -.00000320  00000-0  00000-0 0  9998
2 37755  86.2960 317.6811 6943482 350.5069   4.1793  0.11323121  5611

Śledź SPEKTR R w czasie rzeczywistym z AllMySat

Download on the App Store